Temperature
19 18 18 18 18 18 18 18 18 18 18 18 17 17 17 17 17 17 17 16 16 16 16 15 15 15 15 15 15 15 15 15 15 15 15 15 15 15 15 16 16 16 16
18 18 18 18 18 18 18 18 18 18 18 18 18 18 17 17 17 17 16 16 16 16 15 15 15 15 15 15 15 15 15 15 15 15 15 15 15 15 15 15 15 15 15
18 18 18 18 18 18 18 17 17 18 18 18 17 17 17 17 17 16 16 16 16 15 15 15 15 15 15 15 15 15 15 15 15 15 15 15 15 15 15 15 15 15 15
18 19 18 18 18 18 18 18 18 17 18 18 17 17 17 17 17 17 16 16 16 15 15 15 15 15 15 14 14 14 15 15 15 15 15 15 16 15 15 15 15 15 15
19 19 19 18 18 18 18 18 17 17 17 17 17 17 17 17 17 17 16 16 16 15 15 15 15 15 14 14 14 14 14 15 15 15 15 15 15 16 16 15 15 15 15
19 19 19 18 18 18 18 18 17 17 17 17 17 17 17 17 17 17 16 16 16 16 15 15 15 15 15 14 14 14 14 14 15 15 15 15 15 15 15 15 15 15 15
19 19 19 19 18 18 18 17 17 17 17 17 17 17 17 17 17 17 17 16 16 16 16 15 15 15 15 14 14 14 14 14 14 14 15 15 15 15 15 15 15 15 15
20 19 19 19 19 18 18 18 17 17 17 17 17 17 17 17 17 17 17 16 16 16 16 15 15 15 15 14 14 14 14 14 14 14 14 14 14 15 15 15 15 15 15
20 20 20 19 19 18 18 18 18 17 17 17 17 17 17 17 17 17 17 17 16 16 16 16 15 15 15 15 14 14 14 14 14 14 14 14 14 14 14 14 14 14 14
20 20 20 19 19 19 19 18 18 18 18 17 17 17 17 17 17 17 17 17 16 16 16 16 16 15 15 15 15 14 14 14 14 14 14 14 14 14 14 14 14 14 14
20 20 20 20 19 19 19 18 18 18 18 17 17 17 17 17 17 17 17 17 16 16 16 16 16 16 15 15 15 15 14 14 14 14 14 14 14 14 13 14 14 14 14
20 20 20 19 19 19 19 18 18 18 18 18 17 17 17 17 17 17 17 17 16 16 16 16 16 16 16 15 15 15 14 14 14 14 14 14 14 14 14 14 14 14 14
20 20 20 19 19 19 19 18 18 18 18 18 18 18 17 17 17 17 17 17 17 16 16 16 16 16 16 15 15 15 15 14 14 14 14 14 14 14 14 14 14 14 14
20 20 20 20 19 19 19 19 18 18 18 18 18 17 17 17 17 17 17 17 17 16 16 16 16 16 16 16 15 15 15 14 14 14 14 14 14 14 14 14 14 14 14
19 19 19 19 19 19 19 19 18 18 18 18 17 17 17 17 17 17 17 17 17 16 16 16 16 16 16 16 15 15 15 14 14 14 14 14 14 14 14 14 14 14 14
18 18 18 19 19 19 19 18 18 18 18 17 17 17 17 17 17 17 17 17 16 16 16 16 16 16 15 15 15 15 14 14 14 14 14 14 14 14 14 14 14 13 13
17 18 18 18 18 18 18 18 18 18 17 17 17 17 17 16 16 16 16 16 16 16 16 16 15 15 15 15 14 14 14 14 14 14 14 14 14 14 14 14 14 13 13
17 17 17 17 17 17 17 17 17 17 16 16 16 16 16 16 16 16 16 16 16 15 15 15 15 15 14 14 14 14 14 13 13 13 13 13 13 13 13 13 13 13 13
16 16 16 16 16 16 16 16 16 16 16 16 15 15 15 15 15 15 15 15 15 15 14 14 14 14 14 13 13 13 13 13 13 13 13 13 13 13 13 12 13 13 13
14 15 15 15 15 15 15 15 15 15 15 15 14 14 14 15 14 14 14 14 14 14 13 13 13 13 13 12 12 12 12 12 12 12 12 12 12 12 12 12 12 12 12
14 14 14 14 14 14 14 15 14 14 14 14 14 14 14 14 13 13 13 13 13 13 13 12 12 12 11 11 11 11 11 11 11 11 11 11 11 11 11 11 11 10 10
13 13 13 13 13 13 14 14 13 13 13 13 13 13 13 13 13 13 12 12 12 12 12 11 11 11 11 10 10 10 10 10 10 10 10 10 10 10 9 9 9 9 9
12 12 13 12 12 12 13 13 12 12 12 12 12 12 12 12 12 12 12 12 11 11 11 11 10 10 10 10 10 9 9 9 9 9 9 9 9 9 8 8 8 8 8
12 12 12 12 12 12 12 12 12 12 12 12 12 12 12 11 11 11 11 11 11 10 10 10 10 9 9 9 9 9 9 8 8 8 8 8 8 7 7 7 7 7 7
12 12 12 11 11 11 11 11 11 11 11 11 11 11 11 11 11 10 10 10 10 9 9 9 9 8 8 8 8 8 8 8 7 7 7 7 7 7 7 7 6 6 6
11 11 11 11 11 11 11 11 11 11 11 11 10 10 10 10 10 10 9 9 9 8 8 8 8 7 7 7 7 7 7 6 6 6 6 6 6 6 6 5 5 5 5
Wind_Speed
6 7 8 10 11 10 9 9 9 8 8 6 6 5 4 4 3 4 7 8 9 9 8 5 4 4 3 3 3 2 3 3 1 3 3 3 3 3 2 2 2 1 1
6 7 7 8 10 11 11 9 10 10 9 7 5 4 5 3 3 2 4 7 8 9 7 6 4 4 4 4 3 2 2 2 2 2 3 2 3 3 3 3 2 2 2
9 9 9 9 10 12 12 12 11 10 10 8 6 5 4 4 3 2 2 3 7 8 8 8 6 4 4 3 2 2 4 3 2 2 3 3 2 1 2 3 3 3 2
8 9 9 9 10 11 10 11 11 10 10 10 10 10 7 5 5 4 4 3 6 7 8 8 7 5 4 4 2 2 2 4 2 1 2 1 2 2 0 2 2 3 2
9 9 10 9 9 9 10 10 10 10 10 11 11 11 7 5 4 4 5 4 3 5 7 8 7 5 4 4 3 3 3 2 3 2 2 2 2 2 2 0 2 2 2
9 8 8 7 7 7 8 9 10 10 10 11 11 11 10 9 8 7 6 5 3 3 5 7 6 6 5 5 4 3 4 3 3 2 2 2 2 2 2 2 0 1 2
9 8 8 9 8 9 10 9 10 9 10 10 10 11 11 11 10 9 8 7 5 4 6 6 6 5 5 6 5 4 3 3 3 3 2 2 2 2 2 2 1 0 2
8 9 9 9 9 10 10 10 11 10 10 11 10 9 10 8 7 8 8 8 7 6 7 7 7 7 7 7 5 4 3 3 3 3 2 2 2 2 2 3 3 1 1
7 8 8 9 9 10 10 11 11 10 10 11 10 9 9 8 8 8 7 6 6 6 7 8 7 7 7 7 6 4 4 4 3 3 3 2 1 2 2 2 3 4 2
5 5 6 8 8 8 8 9 10 10 10 10 10 9 9 9 8 8 8 8 8 7 8 8 8 8 8 7 7 5 4 5 4 3 4 3 2 2 2 2 2 2 3
6 6 6 7 7 7 8 9 9 9 9 10 9 8 8 8 8 8 9 8 7 8 9 9 9 9 9 8 8 7 6 6 5 4 5 5 4 3 3 2 2 3 3
5 5 5 6 6 7 7 8 9 9 9 10 9 9 8 8 8 8 8 8 8 8 9 8 9 9 9 9 10 9 8 8 8 7 6 6 5 5 4 4 4 4 4
4 4 5 5 6 6 7 7 8 8 8 8 8 8 8 8 8 8 7 7 7 7 7 8 9 9 9 9 10 9 9 9 9 8 8 8 7 7 5 5 5 5 5
4 4 4 4 4 4 5 6 6 6 7 8 7 7 8 8 7 7 7 7 7 7 7 8 8 9 9 9 9 9 9 9 9 9 9 9 9 9 8 7 7 6 6
5 4 4 4 4 4 4 5 5 6 7 7 7 7 6 6 6 6 6 6 6 7 7 6 7 7 7 8 9 9 9 8 8 8 8 9 10 11 9 7 7 7 6
5 4 4 4 4 4 4 4 4 4 6 6 5 4 4 4 4 4 4 5 4 4 5 5 6 6 6 8 11 9 7 7 8 7 7 6 7 8 9 10 9 9 8
5 5 5 5 4 4 4 5 5 6 7 6 4 3 3 3 2 2 3 3 3 3 3 3 4 4 4 6 7 9 6 6 6 5 4 4 3 3 4 6 7 8 9
7 6 5 6 6 6 6 7 8 8 7 6 5 4 3 3 3 3 2 1 2 2 2 2 2 2 2 4 5 6 4 3 3 3 3 3 2 2 2 3 4 5 6
8 7 7 7 8 8 8 10 10 9 8 7 6 4 4 4 4 4 3 2 3 3 2 2 2 2 2 1 2 4 2 2 1 0 1 1 1 2 2 2 4 6 6
10 9 10 11 11 9 10 12 11 10 9 8 6 5 5 5 5 5 5 5 5 6 6 7 7 7 6 8 7 5 3 2 1 1 2 2 2 3 3 2 4 6 7
11 11 12 11 10 9 11 13 12 10 7 8 8 9 8 8 7 7 6 7 8 9 9 9 8 9 9 10 11 8 4 2 2 2 2 3 5 5 5 3 3 6 7
12 12 12 11 9 9 12 13 10 7 7 9 10 10 9 8 8 8 8 7 8 8 8 8 8 7 7 9 10 11 9 5 3 2 2 3 6 6 6 4 4 6 4
10 10 12 13 11 10 11 12 7 6 9 11 10 9 10 9 8 8 8 7 7 7 6 6 6 6 6 7 10 10 9 8 4 2 4 5 6 5 4 5 6 4 3
10 10 12 13 11 10 10 9 7 8 11 11 9 8 9 9 9 8 7 6 6 6 6 5 5 4 5 6 6 6 6 6 5 4 4 5 5 4 4 4 4 4 3
8 10 11 12 10 9 9 8 7 9 11 9 8 8 8 8 9 9 8 7 6 5 6 4 4 4 4 5 6 5 5 4 4 3 3 4 4 5 5 5 5 5 5
9 10 10 10 9 9 8 7 7 8 9 8 7 6 6 6 7 8 9 14 11 13 12 9 6 5 5 6 8 9 9 9 7 4 4 4 5 5 5 6 6 6 6
Wind_Direction
193 180 184 182 175 174 176 170 165 158 151 149 148 145 149 147 139 145 150 149 146 142 132 122 115 113 112 115 113 102 81 56 43 80 48 27 33 45 32 20 22 17 348
171 177 179 176 180 182 186 179 175 168 167 166 158 148 141 140 139 134 144 155 150 148 143 136 135 127 113 97 93 111 108 61 43 107 94 43 9 9 17 18 29 15 7
189 186 187 187 185 187 188 187 185 179 170 158 137 119 100 90 111 136 152 164 160 155 149 150 144 141 132 126 121 124 125 119 55 59 135 141 196 312 348 10 22 12 17
195 192 192 191 193 191 187 182 180 175 168 162 162 160 162 165 182 174 170 162 165 162 157 154 151 147 140 141 145 130 127 131 128 78 57 100 143 144 72 346 358 5 19
196 194 196 195 190 184 181 177 175 176 172 172 172 167 164 161 149 151 158 163 165 170 166 160 156 153 150 152 142 127 122 128 142 145 131 99 72 86 136 175 334 352 354
194 193 189 180 176 174 174 175 175 178 176 176 175 174 170 164 159 168 173 173 169 173 175 168 167 165 160 160 157 145 132 125 124 130 140 150 149 154 142 155 217 305 316
192 188 181 180 181 174 173 174 175 178 178 177 181 182 178 174 177 178 181 176 178 189 192 176 174 175 176 169 158 153 152 148 141 142 138 148 150 147 144 137 143 288 316
198 194 191 186 185 180 176 174 179 182 179 183 186 184 180 179 183 181 180 186 191 194 185 182 185 186 179 173 165 161 169 165 163 162 154 151 159 162 161 153 147 130 333
198 195 190 185 185 184 181 180 181 182 183 185 182 183 181 182 185 184 184 190 192 191 185 186 188 190 185 177 169 177 182 175 181 180 179 178 188 179 175 163 159 155 182
186 185 187 187 186 186 179 177 180 185 184 182 185 188 187 190 187 181 187 194 194 189 184 190 193 194 191 185 179 183 187 184 191 187 186 193 195 187 178 174 176 171 171
183 186 190 186 179 173 173 177 179 182 183 184 186 183 185 187 184 189 196 196 193 190 193 197 197 198 196 191 189 196 191 196 204 200 201 210 192 193 193 184 180 185 177
171 169 167 162 165 173 178 182 183 186 187 184 183 183 180 180 186 196 200 196 197 198 201 201 202 204 201 195 196 203 201 203 210 212 209 220 208 208 204 197 203 205 201
140 134 135 146 165 175 180 183 185 191 185 177 179 180 179 182 191 197 195 197 200 202 201 198 204 206 203 200 204 206 206 210 215 214 214 221 212 221 219 214 217 219 214
130 133 133 143 154 157 163 172 181 178 172 170 173 182 188 192 195 192 190 194 194 196 200 204 208 208 204 203 205 207 212 217 222 221 221 221 216 223 224 224 226 225 223
105 117 127 127 130 133 140 153 162 165 164 162 171 188 186 183 183 189 190 187 188 197 198 202 209 207 204 208 206 207 212 217 225 229 228 229 226 225 223 227 229 223 228
107 109 111 115 122 131 134 131 132 144 144 148 159 164 154 162 177 187 184 179 183 188 186 200 205 203 216 215 206 205 212 216 222 231 236 236 238 238 233 234 230 219 226
98 97 99 102 102 105 114 111 105 109 116 119 120 118 128 145 167 169 160 169 177 174 181 197 196 198 215 205 201 202 201 212 219 220 226 236 239 228 243 247 244 238 234
92 86 86 88 84 85 91 94 92 95 100 102 98 96 109 106 101 110 128 146 147 149 157 168 177 182 213 198 194 190 187 195 208 209 207 216 246 275 262 262 263 263 258
91 84 79 81 78 75 82 87 81 83 83 77 72 71 90 96 90 88 86 91 98 102 111 108 118 111 59 69 167 159 142 144 147 123 144 196 267 320 300 271 277 285 284
87 83 78 75 73 70 81 84 80 76 73 71 68 63 71 78 78 77 74 73 78 77 77 65 59 62 53 50 63 88 98 100 83 53 40 35 1 342 343 287 284 289 293
87 83 78 72 65 69 81 80 73 65 62 68 67 62 62 68 73 75 75 82 83 79 74 69 59 53 47 45 49 59 69 68 60 40 23 15 12 358 347 331 280 278 291
86 86 84 75 63 67 81 80 70 60 67 70 67 60 57 62 67 72 70 73 81 81 75 74 63 49 42 43 43 45 47 46 56 29 8 360 5 4 359 356 328 318 319
88 86 89 80 65 60 74 79 65 67 73 70 65 62 62 59 59 68 72 71 73 79 74 72 67 47 34 30 33 35 35 37 46 25 16 13 13 9 7 1 353 351 358
91 91 89 84 72 62 65 68 67 73 76 71 62 60 64 61 56 55 58 68 69 78 78 76 70 52 33 23 16 17 17 18 21 14 13 18 20 23 11 0 2 4 350
91 90 91 88 79 69 63 57 62 76 77 70 66 65 68 73 68 63 54 61 54 80 94 87 83 65 41 8 10 21 14 5 1 6 20 21 14 11 6 359 354 352 349
100 94 90 89 84 78 67 52 56 76 81 74 66 70 76 78 82 84 73 55 63 64 68 72 76 59 47 28 29 28 27 24 27 44 29 14 7 360 352 346 341 339 338
Height
1486 1489 1492 1495 1499 1504 1508 1512 1516 1520 1524 1528 1531 1535 1538 1541 1544 1545 1547 1548 1550 1551 1551 1552 1553 1554 1555 1556 1557 1558 1559 1560 1561 1562 1563 1564 1565 1565 1566 1567 1568 1569 1570
1485 1488 1490 1494 1497 1501 1505 1509 1514 1518 1522 1526 1530 1534 1537 1540 1543 1545 1546 1548 1549 1550 1551 1552 1553 1554 1555 1556 1556 1558 1559 1560 1561 1562 1563 1564 1566 1566 1566 1567 1568 1569 1569
1482 1485 1489 1492 1495 1498 1502 1506 1511 1515 1520 1524 1529 1532 1536 1539 1541 1543 1545 1547 1549 1550 1551 1552 1553 1554 1554 1555 1556 1557 1558 1559 1560 1561 1563 1563 1564 1565 1566 1567 1567 1568 1569
1481 1484 1486 1489 1492 1495 1499 1503 1508 1513 1517 1522 1525 1529 1532 1535 1539 1542 1544 1546 1548 1550 1551 1552 1553 1553 1554 1554 1555 1557 1558 1559 1560 1561 1562 1563 1563 1564 1565 1567 1567 1568 1568
1479 1482 1484 1487 1491 1494 1497 1501 1506 1510 1515 1519 1523 1527 1530 1534 1538 1541 1543 1545 1547 1549 1550 1551 1552 1553 1553 1554 1555 1556 1557 1558 1559 1560 1561 1562 1563 1563 1564 1565 1567 1567 1568
1477 1479 1483 1486 1489 1493 1496 1500 1503 1508 1512 1517 1521 1524 1528 1533 1536 1539 1542 1544 1546 1548 1549 1550 1551 1552 1553 1554 1554 1555 1556 1557 1558 1559 1560 1561 1561 1562 1563 1564 1565 1566 1567
1474 1477 1480 1483 1486 1490 1494 1497 1501 1506 1510 1514 1518 1522 1526 1530 1534 1537 1540 1542 1544 1546 1547 1549 1550 1551 1552 1553 1553 1554 1555 1556 1557 1558 1559 1560 1560 1561 1562 1563 1564 1564 1565
1472 1475 1477 1481 1484 1488 1491 1495 1499 1503 1507 1512 1516 1520 1524 1528 1531 1535 1538 1540 1542 1544 1546 1547 1549 1550 1551 1551 1552 1553 1553 1554 1555 1556 1557 1558 1559 1560 1561 1562 1562 1562 1563
1470 1473 1476 1479 1483 1486 1489 1493 1497 1501 1505 1509 1513 1517 1521 1525 1528 1532 1535 1538 1540 1542 1544 1546 1547 1548 1549 1550 1550 1551 1552 1553 1553 1554 1555 1556 1557 1558 1559 1559 1560 1561 1561
1469 1471 1474 1477 1481 1484 1487 1491 1495 1499 1503 1507 1511 1514 1518 1522 1526 1529 1532 1535 1537 1539 1542 1543 1545 1546 1547 1548 1548 1549 1550 1551 1552 1553 1553 1554 1555 1556 1557 1557 1558 1558 1559
1467 1470 1473 1475 1479 1483 1486 1489 1493 1497 1501 1505 1508 1512 1515 1519 1523 1526 1529 1531 1534 1536 1539 1541 1542 1543 1544 1545 1546 1547 1548 1549 1550 1550 1551 1552 1553 1554 1554 1555 1555 1556 1556
1467 1469 1472 1474 1477 1481 1484 1488 1491 1494 1498 1502 1506 1509 1513 1516 1519 1522 1525 1528 1530 1533 1535 1537 1539 1540 1541 1542 1543 1544 1545 1546 1547 1548 1548 1549 1550 1551 1552 1552 1552 1553 1553
1466 1468 1471 1473 1476 1479 1482 1486 1489 1492 1496 1499 1503 1507 1510 1513 1516 1519 1522 1524 1527 1529 1531 1533 1535 1536 1538 1539 1540 1541 1542 1543 1544 1545 1545 1546 1547 1548 1548 1549 1549 1550 1550
1465 1468 1470 1472 1475 1478 1481 1484 1487 1490 1493 1497 1500 1503 1507 1509 1513 1516 1518 1521 1523 1525 1527 1529 1531 1532 1533 1534 1535 1537 1538 1539 1540 1541 1542 1542 1543 1544 1545 1545 1546 1546 1546
1465 1467 1470 1472 1474 1477 1479 1482 1485 1488 1491 1494 1497 1501 1504 1506 1510 1512 1515 1517 1519 1521 1523 1524 1526 1527 1528 1529 1531 1532 1533 1535 1536 1536 1537 1538 1539 1539 1540 1541 1541 1541 1541
1465 1468 1470 1472 1474 1476 1478 1481 1483 1485 1488 1492 1495 1499 1501 1504 1507 1509 1511 1513 1515 1516 1518 1519 1521 1522 1523 1524 1526 1527 1528 1529 1530 1531 1532 1533 1534 1534 1535 1535 1536 1536 1536
1465 1468 1470 1471 1473 1476 1478 1480 1483 1485 1488 1491 1494 1497 1499 1502 1504 1506 1507 1509 1510 1512 1513 1514 1515 1516 1518 1520 1521 1522 1523 1524 1525 1526 1527 1528 1528 1529 1529 1529 1530 1530 1530
1466 1468 1470 1472 1473 1476 1478 1481 1483 1486 1488 1491 1494 1496 1498 1499 1501 1503 1504 1506 1507 1508 1509 1510 1512 1513 1514 1515 1516 1517 1518 1518 1519 1520 1521 1522 1522 1522 1523 1523 1523 1523 1523
1467 1469 1471 1472 1474 1477 1479 1481 1484 1486 1489 1491 1493 1495 1497 1498 1499 1501 1502 1503 1504 1505 1506 1507 1508 1508 1509 1510 1511 1512 1512 1513 1514 1514 1515 1516 1516 1516 1516 1516 1516 1516 1516
1469 1471 1473 1474 1476 1479 1481 1483 1485 1488 1490 1492 1494 1495 1496 1497 1498 1499 1500 1501 1502 1503 1504 1504 1504 1505 1506 1506 1507 1507 1508 1509 1509 1510 1510 1510 1510 1510 1510 1510 1509 1509 1509
1472 1474 1475 1477 1480 1482 1483 1485 1488 1490 1493 1494 1495 1496 1497 1498 1499 1499 1500 1500 1501 1502 1503 1503 1503 1504 1504 1504 1505 1505 1505 1505 1505 1505 1505 1505 1504 1504 1504 1503 1503 1503 1502
1475 1477 1479 1481 1484 1486 1487 1488 1490 1493 1495 1497 1497 1498 1499 1499 1500 1501 1501 1502 1502 1502 1503 1504 1504 1504 1505 1505 1504 1504 1504 1503 1503 1502 1501 1501 1500 1500 1499 1498 1498 1497 1496
1479 1481 1483 1485 1488 1490 1491 1492 1495 1497 1498 1499 1500 1501 1501 1502 1502 1502 1503 1503 1503 1503 1504 1504 1505 1505 1505 1504 1504 1504 1503 1501 1500 1499 1498 1497 1497 1496 1495 1494 1493 1492 1490
1484 1486 1487 1489 1492 1495 1496 1498 1500 1501 1501 1502 1503 1503 1504 1504 1504 1505 1505 1505 1505 1505 1505 1505 1505 1505 1505 1505 1504 1502 1501 1500 1498 1497 1496 1495 1494 1493 1491 1490 1489 1488 1486
1489 1491 1492 1495 1497 1500 1501 1503 1504 1505 1505 1505 1506 1506 1506 1507 1507 1507 1507 1507 1507 1506 1506 1506 1506 1505 1504 1503 1502 1501 1499 1498 1496 1495 1493 1492 1490 1489 1488 1486 1485 1483 1481
1493 1495 1498 1500 1502 1504 1505 1507 1507 1508 1508 1508 1508 1508 1508 1508 1508 1508 1508 1508 1508 1508 1507 1506 1506 1505 1504 1502 1500 1499 1497 1495 1493 1492 1490 1488 1487 1485 1483 1481 1479 1478 1476